Weather History for CYCY - October, 2012

Change the Weather History Date:

Friday, October 5, 2012

  Actual Average Record
Temperature  
Mean Temperature 23 °F -  
Max Temperature 27 °F 21 °F 33 °F (2004)
Min Temperature 19 °F 10 °F 10 °F (1996)
Degree Days  
Heating Degree Days 42    
Moisture  
Dew Point 23 °F    
Average Humidity 90    
Maximum Humidity 100    
Minimum Humidity 65    
Precipitation  
Precipitation 0.00 in 0.04 in - ()
Sea Level Pressure  
Sea Level Pressure 29.86 in    
Wind  
Wind Speed 13 mph ()    
Max Wind Speed 25 mph    
Max Gust Speed 29 mph    
Visibility 3.2 miles    
Events Snow    
Averages and records for this station are not official NWS values.
T = Trace of Precipitation, MM = Missing Value Source: Averaged Metar Reports

Daily Weather History Graph

Daily Weather History Graph

Search for Another Location

Airport or City:

Trip Planner

Search our weather history database for the weather conditions in past years. The results will help you decide how hot, cold, wet, or windy it might be!

Date:

Astronomy

Oct. 05, 2012 Rise Set
Actual Time 8:09 AM ADT 6:33 PM ADT
Civil Twilight 7:06 AM ADT 7:35 PM ADT
Nautical Twilight 5:52 AM ADT 8:48 PM ADT
Astronomical Twilight 4:29 AM ADT 10:10 PM ADT
Moon No Moon Rise No Moon Set
Length of Visible Light 12h 29m
Length of Day
10h 24m
Waning Gibbous, 74% of the Moon is Illuminated
Oct 5
Waning Gibbous
Oct 8
Last Quarter
Oct 15
New
Oct 22
First Quarter
Oct 29
Full

Hourly Weather History & Observations

Time (ADT) Temp. Windchill Dew Point Humidity Pressure Visibility Wind Dir Wind Speed Gust Speed Precip Events Conditions
12:00 AM 22 °F - 15 °F 65% 29.84 in 9 mi WSW 6.9 mph - -  
12:00 AM 21.2 °F 11.7 °F 15.8 °F 80% 29.84 in 9.0 mi WSW 8.1 mph - N/A   Clear
1:00 AM 21.2 °F 12.6 °F 14.0 °F 74% 29.84 in 9.0 mi SW 6.9 mph - N/A   Clear
2:00 AM 19.4 °F 11.5 °F 12.2 °F 74% 29.85 in 9.0 mi West 5.8 mph - N/A   Partly Cloudy
3:00 AM 24 °F - 17 °F 65% 29.84 in 9 mi WSW 5.8 mph - -   Overcast
3:00 AM 23.0 °F 15.8 °F 17.6 °F 80% 29.84 in 9.0 mi West 5.8 mph - N/A   Overcast
4:00 AM 23.0 °F 14.7 °F 19.4 °F 86% 29.85 in 9.0 mi WSW 6.9 mph - N/A   Overcast
4:56 AM 24.8 °F 16.1 °F 19.4 °F 80% 29.84 in 9.0 mi West 8.1 mph - N/A   Overcast
5:00 AM 24.8 °F 15.3 °F 19.4 °F 80% 29.85 in 9.0 mi WSW 9.2 mph - N/A   Overcast
5:11 AM 24.8 °F 16.9 °F 19.4 °F 80% 29.83 in 5.0 mi WSW 6.9 mph - N/A Snow Light Snow
5:20 AM 24.8 °F 16.1 °F 19.4 °F 80% 29.83 in 8.0 mi WSW 8.1 mph - N/A   Mostly Cloudy
5:36 AM 24.8 °F 16.1 °F 19.4 °F 80% 29.83 in 9.0 mi WSW 8.1 mph - N/A   Scattered Clouds
5:53 AM 23.0 °F 13.9 °F 17.6 °F 80% 29.83 in 9.0 mi WSW 8.1 mph - N/A   Overcast
6:00 AM 24 °F - 18 °F 70% 29.84 in 9 mi West 10.4 mph - -   Overcast
6:00 AM 23.0 °F 10.6 °F 17.6 °F 80% 29.84 in 9.0 mi West 13.8 mph - N/A   Overcast
6:08 AM 24.8 °F 11.1 °F 19.4 °F 80% 29.82 in 9.0 mi WNW 18.4 mph - N/A   Overcast
7:00 AM 24.8 °F 9.6 °F 21.2 °F 86% 29.83 in 9.0 mi WNW 23.0 mph - N/A   Mostly Cloudy
8:00 AM 24.8 °F 11.1 °F 21.2 °F 86% 29.83 in 9.0 mi WNW 18.4 mph - N/A   Mostly Cloudy
8:46 AM 24.8 °F 10.3 °F 21.2 °F 86% 29.82 in 7.0 mi WNW 20.7 mph - N/A Snow Light Snow
8:57 AM 24.8 °F 10.7 °F 21.2 °F 86% 29.82 in 6.0 mi WNW 19.6 mph - N/A   Mostly Cloudy
9:00 AM 24.8 °F 10.0 °F 21.2 °F 86% 29.83 in 6.0 mi WNW 21.9 mph - N/A   Mostly Cloudy
10:00 AM 26.6 °F 11.4 °F 23.0 °F 86% 29.83 in 9.0 mi WNW 25.3 mph - N/A   Overcast
11:00 AM 26.6 °F 12.0 °F 23.0 °F 86% 29.83 in 8.0 mi WNW 23.0 mph - N/A Snow Light Snow
12:00 PM 26 °F - 25 °F 93% 29.83 in 1 mi WNW 23.0 mph - - Snow Light Snow
12:00 PM 26.6 °F 12.0 °F 24.8 °F 93% 29.83 in 0.8 mi WNW 23.0 mph 28.8 mph N/A Snow Light Snow
1:00 PM 26.6 °F 13.1 °F 26.6 °F 100% 29.83 in 0.5 mi WNW 19.6 mph 28.8 mph N/A Snow Snow
2:00 PM 26.6 °F 11.7 °F 24.8 °F 93% 29.83 in 0.8 mi WNW 24.2 mph - N/A Snow Light Snow
2:10 PM - - - N/A% - 1.0 mi WNW 19.6 mph 25.3 mph N/A   Unknown
2:20 PM - - - N/A% - 3.0 mi WNW 19.6 mph - N/A   Unknown
3:00 PM 27 °F - 25 °F 91% 29.84 in 6 mi WNW 23.0 mph - -   Overcast
3:00 PM 26.6 °F 11.7 °F 26.6 °F 100% 29.84 in 8.0 mi WNW 24.2 mph - N/A Snow Light Snow
4:00 PM 26.6 °F 13.8 °F 26.6 °F 100% 29.86 in 0.5 mi WNW 17.3 mph 23.0 mph N/A Snow Snow
5:00 PM 26.6 °F 12.4 °F 24.8 °F 93% 29.86 in 1.0 mi WNW 21.9 mph - N/A Snow Light Snow
5:30 PM - - - N/A% - 0.5 mi WNW 21.9 mph - N/A   Unknown
6:00 PM 26 °F - 25 °F 96% 29.87 in 0 mi WNW 16.1 mph - - Snow Light Snow
6:00 PM 26.6 °F 15.2 °F 24.8 °F 93% 29.87 in 0.5 mi WNW 13.8 mph 20.7 mph N/A Snow Snow
7:00 PM 26.6 °F 15.2 °F 26.6 °F 100% 29.87 in 0.2 mi NW 13.8 mph - N/A Snow Light Snow
7:17 PM 26.6 °F 14.7 °F 26.6 °F 100% 29.87 in 0.5 mi NW 15.0 mph - N/A Snow Light Snow
7:22 PM 26.6 °F 14.3 °F 26.6 °F 100% 29.87 in 0.6 mi NW 16.1 mph - N/A Snow Light Snow
7:24 PM 26.6 °F 14.3 °F 26.6 °F 100% 29.87 in 0.6 mi NW 16.1 mph - N/A Snow Light Snow
7:46 PM 26.6 °F 14.3 °F 24.8 °F 93% 29.87 in 0.6 mi NW 16.1 mph - N/A Snow Light Snow
7:48 PM 26.6 °F 13.8 °F 24.8 °F 93% 29.87 in 0.6 mi NW 17.3 mph - N/A Snow Light Snow
7:54 PM 26.6 °F 14.3 °F 24.8 °F 93% 29.87 in 0.8 mi NW 16.1 mph - N/A Snow Light Snow
7:55 PM 26.6 °F 14.3 °F 24.8 °F 93% 29.87 in 0.6 mi NW 16.1 mph - N/A Snow Light Snow
8:00 PM 26.6 °F 13.1 °F 24.8 °F 93% 29.88 in 1.0 mi NW 19.6 mph - N/A Snow Light Snow
8:04 PM 26.6 °F 13.1 °F 24.8 °F 93% 29.87 in 1.0 mi WNW 19.6 mph - N/A Snow Light Snow
8:05 PM 26.6 °F 13.1 °F 24.8 °F 93% 29.87 in 1.0 mi NW 19.6 mph - N/A Snow Light Snow
8:11 PM 26.6 °F 14.3 °F 24.8 °F 93% 29.87 in 1.0 mi WNW 16.1 mph 23.0 mph N/A Snow Light Snow
8:13 PM 26.6 °F 13.8 °F 24.8 °F 93% 29.87 in 1.0 mi WNW 17.3 mph 23.0 mph N/A Snow Light Snow
8:14 PM 26.6 °F 13.4 °F 24.8 °F 93% 29.87 in 0.8 mi WNW 18.4 mph - N/A Snow Light Snow
8:17 PM 26.6 °F 14.7 °F 24.8 °F 93% 29.87 in 0.6 mi NW 15.0 mph 23.0 mph N/A Snow Light Snow
8:24 PM 24.8 °F 12.4 °F 24.8 °F 100% 29.87 in 0.5 mi WNW 15.0 mph 21.9 mph N/A Snow Light Snow
8:33 PM 24.8 °F 11.9 °F 24.8 °F 100% 29.87 in 0.5 mi NW 16.1 mph - N/A Snow Light Snow
8:35 PM 24.8 °F 11.9 °F 24.8 °F 100% 29.87 in 0.6 mi WNW 16.1 mph - N/A Snow Light Snow
8:51 PM 24.8 °F 11.5 °F 24.8 °F 100% 29.87 in 0.6 mi WNW 17.3 mph - N/A Snow Light Snow
8:53 PM 24.8 °F 11.1 °F 24.8 °F 100% 29.87 in 0.6 mi WNW 18.4 mph - N/A Snow Light Snow
8:55 PM 24.8 °F 11.5 °F 24.8 °F 100% 29.88 in 1.0 mi NW 17.3 mph - N/A Snow Light Snow
9:00 PM 25 °F - 24 °F 94% 29.89 in 1 mi WNW 16.1 mph - -   Overcast
9:00 PM 24.8 °F 12.9 °F 24.8 °F 100% 29.89 in 1.0 mi WNW 13.8 mph 19.6 mph N/A Snow Light Snow
9:12 PM 24.8 °F 13.4 °F 23.0 °F 93% 29.88 in 1.5 mi WNW 12.7 mph 19.6 mph N/A Snow Light Snow
9:30 PM 24.8 °F 12.4 °F 23.0 °F 93% 29.88 in 6.0 mi WNW 15.0 mph - N/A Snow Light Snow
9:44 PM 24.8 °F 12.4 °F 23.0 °F 93% 29.88 in 2.5 mi WNW 15.0 mph - N/A Snow Light Snow
9:51 PM 24.8 °F 12.4 °F 23.0 °F 93% 29.88 in 1.5 mi WNW 15.0 mph - N/A Snow Light Snow
9:56 PM 24.8 °F 11.9 °F 23.0 °F 93% 29.88 in 1.4 mi WNW 16.1 mph - N/A Snow Light Snow
10:00 PM 24.8 °F 12.4 °F 23.0 °F 93% 29.89 in 1.1 mi WNW 15.0 mph - N/A Snow Light Snow
10:01 PM 24.8 °F 12.4 °F 23.0 °F 93% 29.88 in 1.1 mi WNW 15.0 mph - N/A Snow Light Snow
10:11 PM 24.8 °F 12.9 °F 23.0 °F 93% 29.88 in 1.0 mi WNW 13.8 mph - N/A Snow Light Snow
10:12 PM 24.8 °F 12.9 °F 23.0 °F 93% 29.88 in 0.8 mi WNW 13.8 mph - N/A Snow Light Snow
10:13 PM 24.8 °F 12.9 °F 23.0 °F 93% 29.88 in 0.6 mi WNW 13.8 mph - N/A Snow Light Snow
10:17 PM 24.8 °F 11.9 °F 23.0 °F 93% 29.88 in 0.4 mi WNW 16.1 mph - N/A Snow Light Snow
10:43 PM 24.8 °F 12.9 °F 23.0 °F 93% 29.88 in 0.8 mi NW 13.8 mph - N/A Snow Light Snow
10:47 PM 24.8 °F 12.9 °F 23.0 °F 93% 29.88 in 1.0 mi NW 13.8 mph - N/A Snow Light Snow
10:49 PM 24.8 °F 13.4 °F 23.0 °F 93% 29.88 in 1.5 mi NW 12.7 mph - N/A Snow Light Snow
10:52 PM 24.8 °F 14.0 °F 23.0 °F 93% 29.88 in 1.8 mi NW 11.5 mph - N/A Snow Light Snow
10:57 PM 24.8 °F 14.6 °F 23.0 °F 93% 29.88 in 1.8 mi WNW 10.4 mph - N/A Snow Light Snow
11:00 PM 24.8 °F 14.0 °F 23.0 °F 93% 29.89 in 2.1 mi WNW 11.5 mph - N/A Snow Light Snow
11:03 PM 24.8 °F 14.6 °F 23.0 °F 93% 29.88 in 2.5 mi WNW 10.4 mph - N/A Snow Light Snow
11:06 PM 24.8 °F 15.3 °F 23.0 °F 93% 29.88 in 2.5 mi NW 9.2 mph - N/A Snow Light Snow
11:08 PM 24.8 °F 14.6 °F 23.0 °F 93% 29.88 in 1.5 mi WNW 10.4 mph - N/A Snow Light Snow
11:09 PM 24.8 °F 14.6 °F 23.0 °F 93% 29.88 in 1.1 mi NW 10.4 mph - N/A Snow Light Snow
11:11 PM 24.8 °F 14.0 °F 23.0 °F 93% 29.88 in 1.0 mi NW 11.5 mph - N/A Snow Light Snow
11:17 PM 24.8 °F 14.6 °F 23.0 °F 93% 29.88 in 0.6 mi NW 10.4 mph - N/A Snow Light Snow
11:20 PM 24.8 °F 14.6 °F 23.0 °F 93% 29.88 in 0.6 mi WNW 10.4 mph - N/A Snow Light Snow
11:23 PM 24.8 °F 15.3 °F 23.0 °F 93% 29.88 in 0.6 mi NW 9.2 mph - N/A Snow Light Snow
11:44 PM 23.0 °F 12.4 °F 19.4 °F 86% 29.88 in 1.0 mi NW 10.4 mph - N/A Snow Light Snow
11:46 PM 23.0 °F 12.4 °F 19.4 °F 86% 29.88 in 1.2 mi NW 10.4 mph - N/A Snow Light Snow
11:57 PM 21.2 °F 9.5 °F 19.4 °F 93% 29.88 in 2.5 mi WNW 11.5 mph - N/A Snow Light Snow